GFSGBSN_925_temp_114.txt.gz
Temp
10 10 9 9 8 8 8 8 8 7 7 7 7 7 6 6 6 6 6 8 8 8 8 8 6 6 7 8 9 16 15 15 16 16 16 16 16 15 14 15 16 17 19 19 20 21 21
10 9 9 9 8 8 7 7 7 7 7 6 6 7 7 7 6 7 8 9 9 9 9 9 7 6 6 7 14 14 14 15 15 15 15 15 15 16 15 15 16 17 18 18 19 20 20
10 10 9 9 9 7 7 6 7 7 6 6 6 7 7 7 8 9 9 10 10 10 10 9 7 6 7 7 15 14 15 15 15 14 14 16 17 15 15 14 16 17 17 18 19 20 20
9 9 9 9 9 7 7 6 7 6 6 6 6 6 7 8 9 9 10 10 10 10 10 10 7 7 7 13 13 14 14 15 16 16 16 16 17 14 14 15 15 15 15 15 18 19 20
9 9 8 8 8 7 7 6 6 6 6 6 6 7 7 8 8 9 10 10 11 12 12 9 7 7 8 13 14 15 14 14 15 16 16 17 16 14 14 13 11 13 13 15 16 19 19
9 8 8 8 7 7 7 6 6 6 6 6 6 7 8 8 9 9 10 11 12 12 11 9 10 8 10 12 14 14 15 14 14 14 14 15 13 13 12 10 11 12 13 14 14 18 19
9 8 8 7 6 6 6 6 6 6 6 6 6 7 7 8 9 9 10 11 8 8 9 9 10 10 10 13 13 14 15 14 13 13 12 13 12 11 13 12 13 13 13 13 15 17 18
8 8 7 7 6 6 6 5 5 6 6 6 6 7 7 8 9 9 10 9 9 7 6 9 10 10 11 11 11 13 15 13 13 11 11 11 11 13 14 15 14 13 13 13 15 17 17
8 7 7 6 6 5 5 5 5 5 5 6 6 6 7 8 9 9 9 9 9 9 6 9 11 12 13 14 14 14 13 12 10 10 10 9 11 14 14 14 14 14 13 13 14 16 17
7 7 6 5 5 5 5 5 4 5 5 5 6 7 7 8 9 8 8 9 9 9 5 14 13 15 15 14 13 15 14 11 10 10 11 9 11 12 13 13 15 11 15 15 15 15 14
7 6 5 5 5 4 4 4 4 4 5 5 6 6 7 7 7 8 8 9 9 8 10 14 14 16 14 13 13 13 15 12 11 12 11 11 12 12 10 14 15 13 13 15 15 15 15
6 5 5 4 4 4 4 4 4 4 4 5 5 6 7 7 7 8 8 9 8 8 10 13 13 12 12 12 13 13 12 12 12 11 10 11 13 12 12 14 15 15 14 15 13 12 13
5 4 4 4 4 4 4 4 3 4 5 5 6 6 6 7 7 8 8 7 8 7 12 12 11 12 11 11 11 11 10 10 8 8 9 11 12 12 14 13 15 13 12 9 12 11 13
4 4 4 3 4 4 3 3 3 4 4 5 6 7 8 8 8 8 8 7 9 11 11 12 12 11 10 10 10 10 9 8 10 10 10 8 10 13 15 14 13 14 13 11 12 12 13
3 3 3 3 3 3 3 3 3 4 5 5 6 7 8 9 8 8 5 5 9 11 12 11 11 9 8 10 9 9 9 10 12 11 9 9 11 13 14 15 14 13 12 14 13 12 13
3 3 3 3 3 3 3 3 3 4 5 5 6 7 8 9 8 8 5 9 11 12 12 11 8 9 7 9 8 7 10 11 10 11 12 12 10 13 13 13 15 13 15 12 10 12 11
3 3 3 3 3 3 3 3 4 4 4 5 6 6 9 9 8 5 4 8 11 12 12 10 9 8 7 7 8 8 10 11 10 9 12 12 11 12 11 14 13 14 14 12 13 12 11
3 3 3 3 3 3 3 3 4 4 5 5 5 5 9 8 4 3 4 10 12 11 11 11 10 9 7 7 7 7 8 8 10 11 11 11 9 10 11 12 14 12 14 14 11 13 13
3 3 3 3 3 3 3 3 4 4 5 5 5 6 9 8 4 3 8 11 12 11 11 10 9 9 8 6 4 5 8 10 11 11 12 11 10 12 12 11 12 13 14 15 12 10 13
3 3 3 3 3 3 3 3 4 4 5 5 3 4 4 5 5 8 8 10 9 11 11 11 10 8 6 3 5 5 7 10 11 11 12 12 11 10 10 11 11 12 14 14 12 12 10
3 3 3 3 3 3 3 3 3 4 5 5 2 3 5 3 5 8 9 9 10 10 11 10 8 9 7 4 5 5 8 9 10 12 11 10 10 9 11 10 10 9 11 11 11 10 10
3 3 3 3 3 3 2 3 3 4 5 5 1 5 5 6 8 8 7 9 10 10 9 8 9 8 9 8 7 7 8 9 9 10 10 11 10 9 10 9 10 9 9 9 10 9 8
3 3 3 3 3 3 2 3 4 4 5 4 5 6 5 6 7 5 5 9 9 9 10 11 9 8 7 9 9 9 9 9 10 9 10 10 10 10 10 9 10 9 8 8 8 7 9
3 3 3 3 3 3 3 3 3 4 5 5 5 4 4 4 6 7 10 10 10 10 9 9 9 9 9 9 8 10 10 10 11 11 11 11 11 11 9 10 9 7 7 8 7 7 6
3 3 3 3 3 3 3 3 3 4 5 5 5 4 3 3 6 8 8 8 8 7 8 9 9 9 7 8 8 10 9 11 11 13 12 12 11 10 10 10 8 8 6 6 7 6 6
3 3 3 3 3 3 2 3 3 4 5 5 5 6 3 3 5 7 7 7 6 5 5 8 8 7 7 6 6 9 9 11 11 11 12 11 10 10 10 10 8 6 5 7 7 6 5
3 3 3 3 3 3 2 3 3 4 4 5 5 5 5 1 4 6 5 6 7 6 5 5 6 6 5 3 6 7 8 10 9 9 9 8 8 8 9 9 7 4 6 8 8 5 4
3 3 3 3 3 2 2 3 3 4 4 5 4 5 5 1 3 6 6 6 5 4 2 4 4 5 4 4 5 5 6 9 8 9 9 8 7 6 8 7 7 3 6 6 4 3 3
3 3 3 3 3 2 2 3 3 3 4 5 4 4 5 3 3 5 6 7 7 7 4 4 6 6 4 3 6 6 6 6 7 6 9 7 6 6 6 5 3 3 3 3 3 3 3

GFSGBSN_925_temp_117.txt.gz
Temp
11 10 10 10 9 9 8 8 9 9 8 8 8 8 8 9 9 9 8 9 9 8 7 6 6 6 8 8 10 14 14 14 15 15 15 15 15 15 14 14 15 15 16 18 18 18 18
11 11 10 10 10 9 8 8 8 8 8 8 8 7 8 8 7 9 9 9 9 8 8 6 6 6 7 10 14 14 14 15 15 14 14 15 14 15 14 14 14 15 15 16 17 17 17
11 11 10 10 10 9 9 8 8 8 8 7 7 7 7 7 8 9 9 9 9 10 9 8 7 7 7 9 14 14 14 14 14 14 14 15 15 14 14 13 15 15 13 14 15 16 17
11 10 10 10 9 9 9 8 8 7 7 7 7 7 7 8 9 9 9 10 10 10 10 7 6 7 7 13 13 15 15 15 15 15 14 16 15 13 13 13 13 13 13 12 15 15 16
11 11 10 9 9 9 8 8 7 7 7 7 7 7 7 9 9 9 10 10 11 11 10 9 7 7 7 13 12 14 14 14 14 15 15 16 15 13 13 12 10 11 11 12 14 16 16
11 11 10 9 9 8 8 7 7 7 6 7 6 7 8 9 9 9 10 11 11 10 8 8 8 7 10 13 13 14 15 14 13 14 14 14 12 11 10 10 10 11 11 11 11 14 14
12 11 10 9 8 8 7 6 7 6 6 6 7 6 7 8 8 9 10 11 8 10 9 10 10 10 10 12 12 13 14 13 13 12 11 12 10 9 9 10 12 12 12 11 12 14 14
12 11 10 9 8 7 6 6 6 6 6 6 6 7 8 8 9 9 10 8 9 8 7 9 8 8 10 11 10 12 14 13 12 10 11 10 9 11 12 12 12 12 11 11 13 14 14
12 10 9 8 7 6 6 6 5 5 6 6 7 7 7 8 8 9 9 8 9 9 6 9 10 11 13 11 12 12 13 12 10 9 9 9 11 12 12 11 11 11 11 12 12 13 14
11 10 9 8 7 6 6 5 5 5 5 6 6 7 7 8 9 8 8 8 8 9 6 13 13 14 14 13 12 15 13 12 9 10 10 9 11 11 10 11 12 10 12 13 12 12 11
11 9 8 7 6 6 5 5 4 4 4 5 6 6 7 7 8 8 8 8 9 8 11 13 14 15 13 12 12 13 13 11 10 10 11 10 11 11 11 12 12 11 13 14 12 11 11
10 8 7 6 6 5 5 4 4 4 5 5 6 6 6 7 7 8 8 9 9 8 11 12 12 11 11 11 11 12 12 12 11 10 10 10 12 11 11 12 12 13 13 12 12 11 9
8 7 6 5 5 5 4 4 4 4 4 5 5 6 6 7 7 8 8 8 8 8 12 11 11 11 10 10 10 10 9 9 8 8 8 10 10 11 12 10 12 12 12 10 8 9 11
7 6 5 4 4 4 3 3 4 5 6 5 5 6 6 8 8 8 8 7 10 11 11 12 11 10 9 9 9 9 9 8 10 8 8 7 9 11 12 11 11 11 11 11 11 12 13
5 5 4 4 3 3 3 3 4 4 4 5 5 6 7 8 8 8 5 5 9 10 12 10 10 8 7 9 8 7 9 10 8 10 8 9 10 13 13 13 13 12 11 13 12 13 12
3 3 3 3 3 3 3 4 3 3 4 5 6 6 7 8 8 7 5 9 10 12 11 10 7 8 5 7 5 7 9 11 9 11 10 11 10 12 12 13 13 14 12 11 10 13 12
2 3 3 3 3 3 3 3 3 3 5 5 6 6 7 8 8 4 4 8 11 11 11 10 9 7 6 5 7 8 9 10 11 11 11 11 11 11 12 12 13 12 11 12 13 13 12
3 3 3 3 3 3 3 3 3 4 5 5 5 5 7 8 4 2 4 8 12 11 11 10 9 9 6 6 8 7 7 9 10 11 10 11 9 9 11 11 12 12 13 13 11 12 12
3 3 3 3 3 3 3 3 4 4 5 6 5 5 7 8 5 3 7 10 11 11 10 10 9 8 7 3 5 4 7 10 10 10 10 11 10 10 12 12 13 12 13 12 11 11 11
4 3 3 3 3 3 3 3 4 5 6 6 4 4 4 5 4 7 8 9 10 11 11 10 10 7 5 3 5 5 6 9 10 10 12 11 10 10 10 10 10 11 13 12 12 10 9
3 3 3 3 3 3 3 3 4 5 6 6 2 4 5 3 4 7 8 9 9 9 10 10 7 8 6 3 4 4 6 8 9 11 9 10 9 9 8 8 9 9 12 10 11 9 9
3 3 3 3 3 3 3 3 4 5 6 5 3 5 4 5 7 8 7 8 9 9 9 8 9 8 8 7 6 6 7 8 7 9 9 10 9 9 9 9 9 7 8 8 8 8 7
4 3 3 3 3 3 2 3 4 5 5 4 4 5 5 5 6 5 5 8 9 9 10 9 9 8 8 7 7 8 8 8 9 8 8 9 10 10 10 10 10 8 7 7 7 7 8
3 3 3 3 3 2 2 3 4 5 6 6 4 4 4 4 6 7 8 9 9 9 9 9 8 8 9 7 7 8 7 7 8 10 8 9 10 10 9 10 8 6 6 6 6 6 6
3 3 3 3 3 2 2 3 4 5 6 6 5 4 3 4 5 7 8 8 7 7 7 8 8 8 6 6 8 9 9 10 12 11 10 10 10 10 10 9 8 7 6 5 6 5 5
3 3 3 3 3 3 3 3 4 5 5 6 5 6 3 4 5 6 6 7 5 5 5 7 7 6 5 5 6 8 8 9 9 9 11 9 9 10 9 10 8 5 4 5 6 5 4
2 3 3 3 3 3 2 3 4 5 5 6 5 6 5 2 4 6 5 5 5 5 4 4 5 5 5 2 5 6 8 9 7 8 8 8 8 7 9 8 6 4 4 5 7 5 4
2 2 3 3 3 2 2 3 4 5 5 6 4 5 6 1 4 5 6 6 5 3 2 4 3 4 3 4 5 5 6 7 8 8 7 7 7 6 7 7 6 3 5 6 4 3 3
2 2 3 3 2 2 2 3 4 4 5 5 4 5 5 3 4 5 6 7 7 6 3 4 6 5 4 3 5 4 5 5 6 6 7 6 6 6 5 4 3 3 3 2 3 2 1

GFSGBSN_925_temp_123.txt.gz
Temp
14 13 13 13 12 12 12 11 11 10 9 9 9 9 8 8 7 8 10 10 10 10 10 10 10 11 12 13 13 14 14 15 15 15 14 15 15 15 15 14 15 15 15 15 15 16 16
12 13 13 12 13 12 12 11 11 10 9 9 9 9 9 8 8 10 10 10 10 10 10 10 10 10 10 14 13 13 14 15 15 15 14 14 15 15 14 14 14 14 15 15 15 16 16
12 12 12 12 12 12 12 11 11 10 9 9 9 9 8 8 9 10 9 9 9 10 10 10 10 9 9 13 13 14 15 14 14 14 15 14 14 15 14 14 14 14 14 16 16 15 16
8 10 11 11 11 12 11 11 11 10 9 9 8 8 8 8 8 9 10 9 10 11 11 10 8 8 12 13 14 14 14 14 14 14 14 14 14 14 14 14 14 14 14 13 15 16 15
7 8 10 11 10 11 11 11 11 9 9 8 8 7 7 7 8 9 10 10 10 10 10 9 8 8 13 13 14 14 14 14 14 13 14 13 13 14 13 13 13 12 14 14 14 16 15
7 7 8 10 11 11 11 11 10 10 8 8 7 7 7 7 9 9 9 9 9 9 8 8 8 10 13 13 13 14 14 13 13 13 14 14 12 13 12 13 13 13 13 13 13 14 14
7 7 8 8 10 9 11 11 11 9 9 8 7 7 7 8 9 9 9 8 9 9 8 11 11 11 11 12 12 13 13 12 13 13 12 12 12 12 13 13 14 13 12 12 13 14 13
7 6 6 7 7 8 9 10 10 9 8 7 7 7 7 9 9 9 9 8 9 10 11 8 8 9 9 10 12 12 13 13 12 12 11 11 11 13 11 11 11 11 11 11 13 14 14
7 6 6 7 7 8 9 11 10 9 7 7 6 7 7 8 8 9 9 9 9 9 10 10 9 10 12 11 12 12 13 12 11 10 10 11 12 12 11 11 11 12 11 11 11 13 14
6 7 6 7 7 8 9 10 9 8 7 7 6 6 6 7 8 8 8 8 9 8 11 12 11 13 12 11 12 13 12 12 11 10 10 10 11 11 10 10 11 11 12 12 12 12 11
7 6 8 8 8 8 8 10 9 8 6 6 6 6 7 7 8 7 9 8 8 8 14 12 12 13 12 12 12 12 12 11 11 11 10 12 10 10 10 11 11 11 12 12 12 11 11
7 10 11 12 11 8 8 10 8 6 6 6 6 7 7 6 7 8 8 8 8 12 13 11 12 11 11 11 11 11 11 11 11 10 10 10 11 11 11 11 12 12 11 12 12 11 10
9 11 11 12 11 9 9 9 7 5 6 6 6 6 6 7 6 8 8 8 11 12 12 11 11 10 10 9 10 10 9 10 10 10 10 10 11 11 11 11 11 11 11 11 11 11 12
9 10 11 11 10 9 9 7 5 5 5 5 5 5 6 8 8 8 8 8 11 11 11 11 10 10 10 9 9 9 9 9 9 10 9 10 12 12 11 12 13 11 12 12 11 13 13
6 11 11 10 9 9 8 6 5 4 4 4 4 5 6 6 8 7 7 9 12 10 11 10 9 9 9 8 8 8 8 9 10 9 9 10 10 12 12 12 13 12 11 13 12 12 11
2 10 10 9 9 7 6 5 4 4 4 4 5 6 6 7 7 7 7 10 10 11 10 10 9 9 8 8 8 8 8 10 10 10 10 9 10 12 13 13 13 13 14 12 12 11 12
6 2 6 7 6 5 4 4 4 4 3 5 5 5 5 6 7 6 6 9 10 11 11 9 8 8 7 7 7 8 9 10 11 10 10 9 9 12 12 12 12 11 12 12 13 12 12
7 6 4 2 4 4 4 3 3 2 2 5 5 5 5 6 6 4 7 10 11 10 10 9 9 8 7 6 7 7 8 9 11 10 10 10 9 10 11 13 13 13 12 13 12 13 12
3 4 4 5 5 3 2 2 2 2 3 5 5 4 4 6 6 6 8 10 10 10 10 9 8 8 5 5 6 4 7 9 9 10 10 9 9 10 12 12 13 11 12 11 12 12 10
3 3 2 2 2 2 2 2 2 3 4 6 4 5 5 5 5 7 9 9 9 10 9 9 7 6 6 4 4 4 6 9 9 9 11 9 9 9 8 8 8 9 10 12 12 11 8
3 2 2 2 2 2 2 2 3 3 4 5 3 5 7 6 6 7 8 9 9 9 9 8 7 8 7 4 5 4 5 8 9 10 10 9 10 9 8 7 7 6 8 9 8 8 8
3 2 3 3 2 3 3 3 4 4 5 5 4 6 5 6 7 8 8 9 9 8 8 8 9 8 7 8 8 7 7 8 9 9 9 9 10 9 8 8 7 6 6 6 7 7 5
2 2 3 3 3 3 3 4 4 5 5 4 3 5 7 6 7 8 7 8 8 8 8 9 8 8 8 8 8 9 9 9 9 8 8 8 9 10 10 9 9 8 5 6 6 6 7
3 3 4 3 3 3 4 4 5 5 6 5 4 5 6 6 7 7 8 9 8 8 8 8 8 8 8 6 6 6 6 6 7 8 8 8 8 9 10 9 9 6 5 5 5 5 5
3 3 3 3 3 3 4 4 5 6 6 7 5 6 6 5 7 7 8 7 7 7 7 8 8 7 5 6 9 10 9 9 9 8 9 8 8 9 10 9 7 7 5 5 6 5 4
3 3 3 3 3 3 4 4 5 5 6 7 6 6 5 7 6 7 7 7 6 6 6 6 6 5 6 7 8 9 9 9 10 10 9 8 8 9 10 10 9 5 5 5 6 6 3
3 3 3 3 2 3 4 4 5 6 7 8 6 6 6 4 4 6 6 6 5 5 6 5 5 6 5 6 8 8 9 9 9 8 8 8 8 7 9 8 6 4 4 5 7 6 3
3 3 3 3 3 3 4 4 5 6 6 8 5 7 6 3 4 5 6 5 4 5 5 5 5 5 5 6 7 7 7 7 8 8 7 7 7 7 7 7 7 3 5 6 4 3 3
3 3 3 3 3 3 4 4 5 5 6 7 6 6 8 4 4 4 5 6 7 6 4 3 5 5 5 6 5 6 7 6 7 6 7 7 6 7 6 5 3 2 2 3 3 3 2

GFSGBSN_925_temp_129.txt.gz
Temp
12 12 13 13 13 13 13 13 13 12 12 12 11 10 10 9 10 10 10 10 12 11 10 11 12 12 14 20 22 17 16 16 17 19 21 22 23 23 24 25 24 24 25 25 24 24 24
9 9 10 11 12 13 13 13 12 13 12 12 11 10 10 9 10 10 11 10 11 10 10 11 12 12 16 20 18 17 17 18 19 20 21 22 22 22 22 23 23 24 23 23 24 24 24
9 8 8 9 11 12 12 12 12 12 12 12 11 10 9 9 9 10 9 11 11 11 11 11 11 11 17 20 18 18 17 18 18 19 21 20 20 21 22 22 23 22 21 24 25 24 23
9 9 9 9 9 10 10 11 11 11 12 12 11 11 10 9 9 9 9 10 11 11 12 11 11 13 19 17 17 17 18 19 18 18 18 19 19 21 21 22 21 22 23 23 24 23 24
8 8 9 9 9 8 9 10 11 11 11 11 11 11 10 9 9 8 9 10 10 11 12 12 12 15 20 16 17 18 18 19 19 18 18 18 19 21 22 21 23 25 24 24 24 25 23
7 8 8 8 9 8 8 9 10 11 11 11 11 11 11 10 8 8 9 10 9 10 11 12 14 16 18 19 19 18 18 18 19 20 19 19 21 21 22 23 23 23 23 23 23 24 23
7 7 7 8 8 8 8 8 9 9 10 9 10 11 11 10 8 8 9 9 12 15 15 19 20 20 20 19 17 18 18 19 19 20 20 21 20 22 23 21 21 20 20 21 22 23 21
7 7 7 7 7 8 8 8 8 8 9 9 9 9 10 11 8 8 9 11 12 11 16 18 18 18 18 19 19 19 18 19 19 20 20 19 20 22 20 19 19 19 20 21 22 22 21
7 7 7 7 7 7 7 7 8 8 8 9 9 9 8 9 6 7 9 11 11 11 13 18 18 18 18 17 19 20 19 20 19 20 20 20 22 19 18 19 19 20 20 20 20 20 21
7 7 6 7 7 7 7 7 8 8 8 8 8 9 7 6 5 8 9 9 10 10 9 16 16 18 18 19 18 20 19 19 18 19 20 20 21 18 19 19 19 19 20 18 18 19 20
6 6 6 6 7 7 6 6 6 8 9 7 8 8 6 8 10 9 10 8 9 11 11 16 17 18 19 18 18 17 17 18 18 19 18 20 19 18 18 19 18 18 18 18 18 18 19
6 6 6 6 6 6 6 6 7 6 7 7 7 7 7 7 9 10 8 8 9 8 10 15 17 16 16 17 18 18 17 17 18 18 19 19 20 18 19 19 18 18 18 19 19 19 19
6 5 6 6 6 6 6 8 8 6 6 7 8 6 7 8 9 8 8 9 7 10 16 16 15 16 17 16 16 17 16 16 18 16 18 19 19 19 18 18 19 18 18 18 18 19 19
5 5 5 6 6 6 8 8 9 9 6 7 8 5 7 8 8 8 10 9 9 16 16 17 16 16 16 17 16 16 17 18 18 18 19 19 17 18 18 18 19 18 18 18 17 19 19
5 5 5 5 6 7 9 9 10 11 7 7 7 5 6 6 7 7 8 9 13 16 15 16 15 15 15 15 15 16 17 18 18 17 17 17 18 20 19 19 18 17 17 19 17 18 17
5 5 5 5 7 8 10 10 10 10 7 7 5 5 4 5 6 7 8 11 15 17 18 17 15 16 14 14 13 15 16 18 16 16 17 16 15 18 19 18 19 18 18 16 16 15 16
4 4 4 5 8 9 10 10 10 8 7 6 6 5 4 5 6 7 8 11 15 15 16 15 15 15 15 14 13 15 17 16 17 16 17 15 15 17 18 18 18 16 16 15 17 17 16
4 4 4 6 7 10 9 9 8 5 5 7 6 5 4 5 5 6 8 14 16 14 14 13 16 15 14 13 13 16 16 15 17 17 15 15 12 13 17 19 18 17 16 15 15 16 16
4 4 4 6 6 7 5 6 5 5 7 5 4 4 4 5 8 8 12 13 15 14 14 13 12 11 12 10 10 10 15 16 15 15 15 15 12 15 16 16 18 16 16 15 14 13 14
4 4 4 5 5 5 5 5 5 5 7 7 5 5 4 3 6 10 13 13 14 15 15 15 14 10 10 8 9 9 13 14 14 15 12 12 15 14 15 12 13 12 13 13 14 13 12
4 4 4 4 4 3 3 3 4 4 5 5 6 8 8 6 7 11 13 13 13 13 14 14 11 12 11 9 11 10 14 13 14 12 13 13 12 12 13 13 12 9 10 9 11 11 11
4 3 3 3 4 3 3 3 3 3 4 5 4 9 10 10 10 10 11 11 12 13 13 13 13 14 14 12 13 11 12 14 14 15 13 13 10 10 10 11 11 8 8 9 10 9 9
3 3 3 3 3 3 3 3 4 4 4 5 6 10 10 7 8 8 8 10 12 12 13 13 15 14 14 14 15 15 16 15 15 15 14 13 13 12 13 11 12 11 7 8 9 11 11
3 3 3 2 3 3 3 4 4 4 5 7 8 9 9 7 8 9 11 12 13 12 13 15 15 14 13 13 13 13 13 14 14 14 15 15 14 14 13 12 12 7 10 10 9 8 9
3 3 3 3 2 2 2 3 3 4 4 7 7 9 11 8 10 12 13 14 14 14 14 14 13 13 13 13 14 13 13 13 14 15 14 15 14 14 13 14 9 8 9 9 9 8 8
3 3 3 3 3 3 3 3 4 5 5 7 7 6 13 12 11 13 13 14 12 13 12 10 11 11 12 14 14 14 14 15 14 13 14 15 14 13 14 14 13 12 12 11 11 9 9
3 4 4 4 3 3 3 3 5 5 6 7 9 7 13 14 15 15 14 13 14 13 12 11 11 11 12 13 13 15 15 16 14 14 12 13 14 13 14 14 11 11 10 10 9 8 8
3 3 4 4 4 4 4 5 5 6 6 7 8 8 13 12 12 13 13 12 13 14 12 12 11 11 11 13 14 14 15 14 14 15 14 14 14 12 13 13 11 10 9 9 8 8 8
3 3 3 3 4 4 5 5 5 6 7 9 10 9 12 13 10 8 8 9 11 12 13 11 13 13 13 14 14 15 13 13 15 12 13 13 13 12 10 8 6 8 8 9 9 8 8

GFSGBSN_925_temp_135.txt.gz
Temp
10 11 12 12 13 13 12 13 13 13 13 13 12 12 12 11 11 11 11 11 11 13 13 12 12 13 15 15 18 19 19 19 19 20 19 21 20 20 20 20 20 22 23 23 23 23 24
9 10 10 10 10 11 12 12 12 12 13 13 12 12 12 11 11 11 11 11 12 13 13 13 12 12 12 15 20 19 19 19 19 20 21 21 20 20 20 20 20 22 22 22 22 21 22
9 9 9 9 9 9 10 11 12 12 12 12 12 12 12 11 11 11 11 11 11 12 13 13 12 11 12 15 20 19 19 19 20 20 19 20 20 19 18 19 21 21 20 19 21 21 21
8 8 8 9 9 9 9 9 10 11 11 11 12 12 12 11 11 11 11 10 11 12 13 12 12 11 12 19 20 20 20 19 20 19 20 20 20 19 18 19 20 20 20 18 21 21 22
7 7 8 8 8 8 9 9 9 9 10 10 11 11 11 11 11 11 10 11 11 12 12 12 11 11 14 18 19 19 19 20 20 20 20 20 20 18 18 16 16 18 17 18 20 22 21
7 7 7 7 7 8 8 9 8 9 9 9 10 10 10 11 11 11 10 10 11 11 13 11 12 13 16 18 20 20 20 20 19 19 19 18 16 16 15 16 15 19 19 19 20 21 22
7 7 7 7 7 7 7 8 9 9 8 9 9 9 9 9 10 10 9 11 10 10 11 14 16 16 19 20 20 20 20 19 19 18 16 17 15 14 16 17 19 19 19 18 18 20 22
7 7 7 7 7 7 7 7 7 8 8 8 8 9 9 9 9 9 8 10 11 10 11 15 15 16 17 18 19 19 20 18 17 16 17 16 16 18 20 21 20 19 18 17 19 21 19
7 7 7 7 7 7 7 7 7 8 8 8 8 8 8 9 8 7 9 10 11 12 10 14 16 17 18 19 18 18 19 18 17 17 17 17 19 21 20 19 19 19 18 18 18 18 18
7 7 7 7 6 6 6 7 8 8 8 8 8 7 7 7 7 7 7 10 12 12 9 13 15 16 18 19 17 20 20 18 18 17 18 18 20 21 19 19 19 17 20 19 18 17 15
6 7 7 6 6 6 6 7 7 7 7 7 7 7 6 7 8 7 10 10 11 11 11 17 17 20 19 18 19 18 20 18 17 17 18 17 19 19 19 20 20 19 19 18 17 15 15
6 7 7 7 6 6 6 6 6 6 7 7 7 7 6 6 7 9 10 10 10 9 11 16 17 17 17 17 18 19 18 17 18 17 17 17 20 19 19 20 20 19 18 17 16 15 12
6 6 6 6 6 6 6 6 6 6 6 6 7 7 6 6 7 8 10 10 8 10 16 16 16 17 16 16 16 17 16 15 14 14 15 17 18 19 20 18 18 18 16 11 12 12 13
6 6 6 6 6 6 6 6 6 6 6 6 7 6 6 6 7 9 9 8 9 13 14 18 17 16 15 16 16 16 15 14 15 15 15 15 14 18 19 18 18 16 16 12 14 14 14
6 6 6 6 6 6 6 5 5 5 6 6 6 6 6 6 7 9 8 8 9 13 15 16 16 15 14 15 15 15 15 15 16 16 14 15 17 19 19 19 19 17 16 18 15 16 13
5 6 6 5 5 5 5 5 5 5 5 5 5 6 6 6 7 8 8 10 10 14 16 15 14 15 12 14 14 14 14 17 17 18 18 16 13 17 19 19 19 18 18 14 13 13 13
5 5 5 5 5 5 5 6 5 5 5 6 6 7 8 7 7 6 7 9 11 14 15 14 14 13 14 13 12 14 15 16 17 17 17 16 13 14 17 17 17 16 16 16 15 13 11
5 5 5 5 5 5 5 5 5 7 7 6 7 7 6 6 6 6 7 10 12 14 13 14 14 14 14 14 13 13 14 16 17 16 15 15 10 11 15 18 19 18 16 16 11 13 13
5 5 5 5 5 4 5 5 6 10 9 7 7 5 6 7 8 7 8 9 12 13 13 13 13 13 12 10 10 9 14 16 16 16 14 14 11 12 14 15 17 17 16 15 13 10 10
5 5 5 5 4 4 4 5 5 6 8 7 4 5 5 6 10 9 8 10 10 12 13 14 14 11 10 8 8 7 11 15 15 14 13 13 13 12 11 10 12 14 14 12 12 8 8
5 5 5 5 4 4 4 4 4 4 4 5 4 5 6 6 7 6 9 10 11 11 13 13 12 11 9 8 9 9 12 13 14 12 13 12 10 10 13 13 11 9 10 10 10 10 9
5 5 5 5 4 4 4 4 4 4 4 4 3 5 7 7 6 6 8 11 10 11 12 12 10 12 10 9 10 9 11 12 12 12 12 12 10 7 6 10 12 6 6 6 8 10 9
5 4 4 4 4 4 4 3 4 5 5 4 5 7 8 7 6 7 7 10 11 12 13 13 12 11 11 12 12 12 13 14 13 12 11 11 11 10 10 9 11 10 6 7 10 11 10
4 5 4 4 4 4 4 3 4 4 4 4 6 6 8 6 7 8 9 11 11 13 12 14 13 12 12 13 13 12 12 14 14 13 13 12 12 12 9 10 10 8 9 9 10 9 7
5 4 4 4 4 4 4 4 3 3 4 4 5 6 6 5 8 9 10 11 12 11 11 11 11 12 12 13 11 11 11 12 12 12 12 12 12 10 10 10 9 9 10 10 8 8 7
4 4 4 4 4 3 3 3 3 3 4 5 5 6 6 7 9 12 10 10 8 8 9 8 12 12 12 11 11 11 10 12 12 13 13 13 12 10 10 11 10 10 11 11 11 7 8
4 4 4 4 3 3 3 3 3 3 4 4 5 6 6 6 8 9 8 7 8 8 7 7 10 10 11 9 10 11 12 14 12 12 11 11 11 9 8 10 10 12 11 12 8 7 8
4 4 4 4 3 3 3 3 3 4 4 4 6 7 7 7 8 9 9 8 9 8 7 8 8 9 8 9 10 11 10 13 12 14 12 11 9 8 9 10 10 10 10 9 7 8 8
4 4 3 3 3 3 3 3 3 4 4 4 4 7 7 7 7 10 9 10 11 12 9 9 9 10 9 9 10 10 10 10 12 9 14 10 11 8 8 7 6 8 8 8 7 6 5

GFSGBSN_925_temp_138.txt.gz
Temp
11 11 11 12 12 12 13 12 13 13 13 13 13 13 12 12 12 12 11 12 12 12 13 14 14 15 16 14 17 20 19 19 19 19 19 18 19 18 18 18 18 21 22 21 21 21 22
10 10 10 10 11 11 11 12 12 12 12 12 13 13 12 12 12 11 11 12 12 12 13 13 14 14 13 15 20 20 19 19 19 19 19 19 18 19 18 18 18 19 19 19 20 20 21
9 9 9 9 9 9 9 10 11 11 12 12 12 12 12 12 11 11 11 11 12 12 12 13 12 12 11 15 19 19 19 20 19 19 19 19 19 18 17 17 18 19 19 18 20 20 21
8 8 8 8 9 9 9 9 9 10 11 11 12 12 12 12 11 11 11 11 12 11 12 12 12 11 12 18 19 19 19 19 19 19 19 19 19 18 18 17 17 19 18 17 20 19 21
7 7 8 8 8 8 8 8 9 9 9 10 10 11 11 11 11 11 11 11 12 12 12 12 11 11 12 17 18 19 19 19 19 19 19 20 19 17 17 15 14 16 16 17 19 21 19
7 7 7 7 7 8 8 8 8 8 8 9 10 10 11 11 11 10 10 10 12 11 12 11 11 11 13 17 19 19 19 19 19 18 18 18 15 14 13 13 15 17 18 18 19 20 20
7 7 7 7 7 7 7 7 8 8 8 8 9 9 10 10 9 9 9 11 11 10 10 12 13 14 18 18 19 19 19 19 18 17 15 16 14 13 14 15 17 17 18 17 17 19 20
7 7 7 7 7 7 7 7 7 8 8 8 8 8 9 9 9 9 9 10 11 11 9 12 13 14 15 16 16 18 19 17 16 15 15 15 13 16 17 17 17 17 17 16 17 19 18
7 7 7 7 7 7 6 7 7 7 8 8 8 8 8 8 9 8 8 10 11 11 10 11 13 15 16 16 16 17 17 16 16 15 15 14 16 18 18 17 17 17 16 17 17 18 17
7 7 7 7 7 6 6 6 7 7 8 8 7 7 7 7 8 8 8 10 11 11 7 11 13 14 16 17 16 18 18 17 16 15 16 15 17 18 17 18 18 16 18 18 17 15 15
7 7 7 7 6 6 6 6 7 7 7 7 7 7 6 7 8 7 10 10 11 11 8 15 16 18 18 17 17 17 19 17 16 16 16 15 17 18 17 18 18 17 18 17 17 15 14
7 7 7 7 7 6 6 6 6 6 7 7 7 7 6 6 7 9 10 10 10 8 8 14 16 16 16 16 17 18 17 17 17 16 16 15 17 16 18 19 19 17 17 17 16 14 12
6 6 6 6 6 6 6 6 5 6 6 6 7 7 6 6 7 9 10 10 8 9 14 15 15 16 15 15 15 16 15 14 13 13 13 15 16 17 18 17 18 17 15 11 12 10 13
6 6 6 6 6 6 6 6 5 6 6 6 7 7 6 6 7 8 9 8 7 11 13 17 16 15 14 15 15 15 14 13 13 14 13 12 12 16 17 17 17 15 15 12 14 13 13
6 6 6 6 6 6 6 5 5 5 6 6 7 6 6 6 7 7 8 7 8 11 13 14 14 14 13 14 13 13 13 13 13 13 12 12 14 18 18 18 18 16 14 17 14 14 12
6 6 6 6 6 5 5 5 5 5 6 6 5 5 6 7 7 6 7 8 9 12 14 14 12 13 11 13 12 12 13 15 15 15 15 14 12 17 17 18 18 17 17 14 13 14 12
5 6 6 6 6 5 5 5 5 5 5 6 5 6 7 7 6 5 7 8 10 12 13 12 12 12 13 12 12 12 14 15 15 15 15 14 12 14 16 16 16 16 14 15 14 12 12
5 5 5 5 5 5 5 5 5 5 6 5 5 6 7 6 6 6 7 9 11 11 12 11 12 12 11 12 11 11 13 15 15 14 14 14 10 10 14 17 17 16 15 15 12 14 12
5 5 5 5 5 5 4 5 5 5 6 6 6 6 6 7 7 7 8 8 10 11 11 11 11 12 12 9 9 8 13 15 15 14 13 13 10 10 13 14 16 15 14 14 12 11 11
4 4 5 5 5 4 4 4 5 6 8 6 5 6 6 7 8 8 7 8 8 10 11 12 12 11 10 7 8 8 11 14 14 14 13 14 12 12 10 11 12 12 13 12 12 9 6
4 4 4 5 4 4 4 4 5 6 5 7 4 6 7 7 7 8 9 9 9 9 10 11 10 10 9 6 8 7 11 13 13 13 13 12 11 11 11 12 10 9 10 10 10 9 9
4 4 5 5 4 4 4 4 5 5 5 4 3 5 5 7 8 8 8 8 9 10 10 10 10 11 9 9 10 8 10 11 10 11 12 12 10 8 9 10 11 8 6 7 8 10 8
4 4 4 4 4 4 4 4 4 5 5 4 4 4 5 5 6 6 8 8 8 11 11 11 11 11 10 10 11 11 13 12 12 12 10 11 10 9 11 9 10 10 7 6 8 9 9
4 4 4 4 4 3 4 4 4 4 5 5 5 5 5 6 6 7 7 8 8 10 9 11 11 11 11 12 12 11 12 12 12 12 12 11 11 11 10 10 10 8 8 8 9 8 7
4 5 5 4 4 4 3 3 4 4 4 4 5 5 6 5 6 6 7 7 9 11 10 11 11 12 11 12 11 11 10 11 12 13 12 12 11 10 10 10 9 8 9 9 9 8 6
5 5 4 4 4 4 4 4 4 4 4 4 4 5 6 6 6 8 8 8 8 8 7 8 10 10 11 10 10 9 10 11 10 12 11 11 11 10 9 10 9 10 10 10 10 8 6
4 4 4 4 4 4 4 4 3 4 4 4 4 5 5 6 7 9 9 9 8 6 7 7 9 9 10 8 10 10 11 13 10 11 10 9 8 9 8 9 9 11 10 10 8 8 6
3 3 4 5 5 4 3 3 4 4 4 3 5 5 6 6 7 9 9 7 7 7 7 7 7 6 7 9 10 10 10 11 11 12 11 10 10 8 8 9 9 9 10 9 7 6 6
4 3 4 4 3 3 4 3 3 3 3 3 4 6 7 6 7 8 8 9 9 9 8 8 8 8 8 9 9 9 8 9 10 8 12 10 10 8 8 7 6 7 8 7 6 5 4

GFSGBSN_925_temp_141.txt.gz
Temp
12 11 11 11 12 12 12 12 13 13 13 13 13 13 13 12 12 12 12 12 12 13 13 13 14 15 16 15 17 20 20 19 19 19 18 17 18 18 18 17 17 19 19 19 19 19 21
10 10 10 11 11 11 11 11 12 12 12 12 12 12 12 12 12 12 11 12 12 12 12 13 14 14 14 15 19 20 19 19 19 19 18 18 17 18 18 17 17 18 18 17 18 19 20
9 9 9 9 9 9 10 10 11 11 11 12 12 12 12 12 12 12 12 12 12 12 12 12 13 12 12 15 19 19 19 19 19 19 18 19 18 18 17 16 17 18 17 17 18 19 19
8 8 9 9 9 9 9 9 9 9 10 11 11 11 11 11 12 11 11 11 11 11 12 12 12 11 12 18 17 18 18 18 19 19 19 19 19 17 17 16 16 17 17 17 19 18 20
8 8 8 8 8 8 8 8 8 8 9 9 10 10 11 11 11 11 11 11 11 11 11 11 11 11 12 17 17 19 18 18 19 19 19 19 18 16 16 14 14 14 15 16 17 19 19
7 7 7 7 7 7 8 8 8 8 8 8 9 10 10 10 10 11 11 11 11 12 11 10 10 11 13 17 18 19 19 19 18 18 17 17 12 13 12 13 15 15 15 16 17 19 19
7 7 7 7 7 7 7 7 8 8 8 8 8 9 10 10 10 10 10 11 10 10 10 11 12 12 15 17 18 18 19 18 17 17 15 15 13 13 14 13 16 17 17 16 16 18 19
7 7 7 7 6 7 7 7 7 8 8 8 8 8 9 9 8 9 9 9 11 10 8 11 11 12 14 15 15 16 18 17 15 14 14 14 12 15 15 15 15 15 15 15 16 17 17
8 7 7 7 7 6 7 7 7 7 8 8 8 8 8 8 9 8 9 10 11 11 8 10 11 13 13 14 13 14 16 16 15 14 14 14 16 16 16 15 15 15 15 16 16 17 17
7 7 7 7 7 6 7 6 6 7 8 8 8 8 7 7 8 8 8 10 10 11 6 10 12 13 14 15 15 16 17 16 15 14 14 14 16 16 16 15 15 14 16 17 17 15 14
7 7 7 7 7 6 6 6 6 7 7 7 7 7 7 7 8 7 9 10 10 10 8 14 14 16 15 15 17 16 17 16 15 15 15 14 17 16 15 16 17 16 17 16 15 14 13
7 7 7 7 6 6 6 6 6 6 6 6 7 7 7 7 8 9 9 10 10 6 7 14 16 15 14 15 16 16 16 16 16 15 15 14 16 16 15 17 17 17 16 15 13 12 12
7 7 7 6 7 7 6 6 6 6 6 6 6 6 7 6 7 9 9 9 6 6 13 14 14 15 15 14 15 16 15 14 13 13 12 15 15 16 16 15 16 16 14 11 11 10 13
7 7 6 6 6 6 6 6 6 6 6 6 6 6 6 7 7 8 8 6 5 10 10 14 15 15 14 14 14 14 13 13 13 14 12 12 12 15 16 15 15 14 15 14 13 13 13
7 7 6 6 6 6 6 6 5 6 6 6 6 6 6 7 7 7 5 6 7 9 12 13 14 13 13 14 13 14 12 12 13 12 12 11 13 16 16 16 17 14 14 15 15 13 11
7 6 7 6 6 6 6 5 5 5 6 6 6 6 6 7 7 6 6 8 7 10 13 12 11 12 11 11 12 12 12 14 14 13 14 13 12 15 16 17 17 16 15 14 11 13 12
6 6 6 6 6 6 5 5 5 5 5 5 6 5 7 7 6 6 6 7 9 10 11 12 11 11 12 12 11 11 13 14 14 14 13 13 11 13 14 15 15 15 14 14 14 12 11
6 6 6 6 6 5 5 5 6 6 6 5 5 5 7 7 6 6 7 7 10 10 10 10 11 10 10 12 11 10 11 13 14 14 12 12 10 8 13 16 17 14 14 12 11 12 12
6 5 6 6 5 5 5 5 5 6 6 5 5 5 5 6 6 6 8 8 8 9 10 9 9 10 10 8 8 8 11 13 13 13 12 12 9 11 12 13 15 13 13 13 12 11 11
6 5 5 6 6 5 5 5 5 5 5 5 5 5 5 5 6 7 7 7 8 9 9 10 10 9 10 6 8 10 10 13 13 13 13 13 12 11 9 10 12 12 13 11 11 11 9
5 5 5 5 5 5 5 5 5 5 5 5 5 6 6 6 6 6 7 7 8 8 9 9 9 8 8 8 7 7 10 12 12 12 12 12 11 10 11 11 11 10 10 10 9 10 9
5 5 5 5 4 5 5 5 5 5 5 4 4 5 5 6 7 6 7 8 8 9 9 8 8 9 10 9 10 9 9 10 11 10 10 10 9 9 8 10 10 9 8 9 10 10 9
5 4 4 4 4 4 4 4 4 5 5 4 4 4 5 6 7 7 8 8 8 9 9 10 9 9 9 9 10 10 10 11 11 10 8 9 9 9 10 9 10 9 8 8 8 9 9
4 4 4 4 4 4 4 4 4 5 5 5 4 4 4 5 6 7 8 8 8 9 8 10 10 9 10 11 11 11 11 11 11 11 12 9 9 10 10 9 9 9 8 8 9 9 7
4 4 4 4 4 4 4 4 4 4 5 4 5 5 5 6 5 6 7 8 8 9 8 8 9 10 10 9 9 8 9 11 11 12 11 12 10 9 10 10 10 9 9 8 8 9 6
4 4 4 5 4 4 4 4 4 4 5 4 4 4 5 6 6 8 7 7 7 7 7 7 9 9 10 9 7 8 9 10 11 11 12 11 11 9 9 10 10 10 10 9 10 8 5
4 5 5 5 4 4 4 4 4 3 4 4 4 5 4 6 6 7 6 7 7 6 7 7 9 10 10 7 8 8 9 12 9 10 9 10 9 9 10 10 10 10 9 10 9 8 5
4 4 4 4 4 4 4 4 4 3 3 3 4 4 5 6 6 7 9 7 7 7 6 6 7 6 7 8 8 8 9 10 10 11 10 9 9 9 8 9 9 9 9 9 7 5 4
4 4 4 4 4 4 4 4 4 3 3 4 3 5 5 5 6 7 8 8 9 10 7 7 8 7 7 8 8 9 7 8 9 9 11 9 9 9 9 8 6 6 8 7 6 4 3

GFSGBSN_925_temp_147.txt.gz
Temp
13 13 13 13 12 12 12 12 13 13 13 13 13 13 13 13 13 12 12 12 13 13 13 13 13 15 16 16 17 19 19 19 19 19 18 18 18 18 18 17 18 19 19 19 19 19 19
12 11 12 12 12 12 12 12 12 12 12 12 12 13 12 12 12 12 12 12 12 13 13 12 12 13 15 15 17 18 19 19 19 19 18 18 18 17 17 17 18 17 18 19 19 19 19
10 11 11 11 10 10 11 11 11 11 11 11 12 12 12 11 12 12 12 11 13 13 13 12 12 12 12 15 17 17 18 18 18 18 18 18 18 18 17 18 16 17 18 19 19 19 19
10 10 10 10 9 9 9 10 10 9 10 10 11 11 11 11 10 11 11 11 11 11 12 12 11 11 12 16 16 17 17 18 18 18 18 18 18 17 17 17 17 18 17 19 19 18 18
9 9 9 9 9 9 8 9 9 9 9 9 9 9 10 10 10 10 11 12 11 11 12 11 11 11 13 16 16 17 17 17 18 18 18 18 17 15 16 17 18 16 20 18 19 19 19
9 8 8 8 8 8 8 8 8 8 8 8 8 9 9 9 9 10 10 11 11 11 10 10 10 11 14 16 16 17 17 17 17 17 17 16 15 16 14 17 19 19 18 17 18 19 19
9 8 8 8 8 7 7 7 8 8 8 8 8 8 8 9 9 10 9 11 10 10 9 12 12 12 13 14 15 17 17 17 17 17 16 15 16 17 18 16 16 17 16 17 18 18 18
8 9 8 7 7 7 7 7 7 7 8 8 8 8 8 9 9 9 9 10 9 9 9 10 10 10 11 13 13 15 17 17 16 16 15 15 16 17 15 15 15 16 16 17 17 17 17
8 8 8 7 7 7 6 7 7 7 8 7 8 7 8 8 8 8 9 9 10 9 9 10 10 11 12 13 13 14 16 15 15 14 14 15 17 15 15 15 15 15 15 15 17 18 16
8 7 8 8 7 7 7 7 6 6 7 8 7 8 7 7 8 8 8 9 10 10 8 12 11 13 13 13 14 14 15 16 15 15 15 15 15 15 15 15 16 15 15 16 16 16 17
8 7 7 7 7 7 7 7 6 6 7 7 8 7 7 7 7 7 8 9 10 10 12 13 12 14 13 14 15 15 14 15 15 15 15 15 16 15 15 15 15 16 16 16 16 16 16
8 8 7 7 7 7 7 7 6 6 7 7 7 7 7 7 7 7 8 9 10 9 11 13 13 13 13 14 15 15 15 16 15 15 14 14 15 16 16 16 16 16 16 15 13 15 15
8 8 7 7 7 7 7 6 6 6 7 7 7 7 7 7 7 8 9 9 9 10 13 13 13 13 14 14 14 14 14 14 14 13 13 14 15 16 16 15 16 16 15 14 14 14 15
8 8 7 7 7 7 6 6 6 6 6 6 7 7 7 7 7 8 9 8 8 11 10 12 13 13 14 14 14 14 13 14 13 14 13 14 14 15 14 15 16 14 15 14 13 15 15
7 7 7 7 7 7 6 6 6 6 6 6 6 6 6 7 7 8 7 7 10 10 11 12 13 13 13 13 13 13 13 13 14 14 14 13 13 15 15 16 17 15 14 16 14 15 12
7 7 7 7 7 7 6 6 6 6 6 6 6 6 6 7 7 8 7 8 8 9 10 11 12 12 11 12 13 12 13 13 13 13 14 14 13 14 16 16 16 16 16 14 12 12 12
7 7 7 7 7 6 6 6 6 6 6 6 6 5 6 6 7 6 7 7 8 9 10 10 10 11 11 12 11 11 13 13 13 13 13 13 13 14 15 15 15 15 14 14 14 12 12
7 7 7 7 7 6 6 6 6 6 6 6 5 4 4 6 6 5 7 6 8 9 9 9 9 10 10 10 10 10 11 13 13 13 13 14 12 12 14 15 16 15 15 15 12 13 12
7 7 7 7 7 7 6 6 6 6 5 6 4 3 4 6 5 5 5 7 8 8 8 8 8 9 9 8 8 8 11 12 12 13 13 13 11 13 14 14 14 14 13 14 13 10 12
7 7 7 7 7 7 6 6 6 6 5 7 4 4 4 5 6 6 6 6 7 8 8 8 8 8 8 7 8 7 10 11 11 12 13 12 12 12 12 13 13 13 13 13 14 11 12
6 6 6 7 6 6 6 6 6 6 6 6 4 4 5 5 5 5 6 6 7 7 8 8 7 7 8 6 7 8 10 10 11 12 12 12 11 10 12 12 12 11 12 11 12 12 11
6 6 6 6 6 6 6 6 6 6 6 5 4 4 4 4 6 5 5 6 6 7 7 7 7 8 7 7 8 9 9 9 10 11 11 10 11 8 7 10 11 9 9 8 10 10 10
5 5 6 6 6 6 5 6 6 6 5 4 4 4 5 5 5 5 6 6 7 7 8 8 8 8 7 8 9 9 9 9 9 9 9 9 10 9 11 9 10 9 10 10 11 11 11
4 5 5 6 5 6 6 6 6 6 5 5 4 5 5 4 5 6 7 7 7 7 7 9 9 8 9 10 9 7 7 8 8 7 9 10 9 9 10 9 10 12 10 11 10 11 11
4 4 5 5 5 5 5 5 5 5 5 5 5 4 4 5 6 6 7 7 7 7 7 8 9 9 9 6 7 7 7 7 9 10 9 10 9 10 10 11 11 13 10 10 10 12 10
4 4 4 5 5 5 5 5 5 5 5 4 4 5 5 5 6 7 6 6 6 6 7 7 8 9 8 6 7 8 9 9 9 9 10 10 10 10 10 10 10 12 10 10 11 12 8
4 4 4 4 4 5 4 4 4 5 5 4 4 4 4 4 5 6 6 6 7 6 6 7 8 7 6 6 8 9 10 10 10 10 9 9 9 9 10 10 11 12 10 10 11 12 7
4 4 4 4 4 4 4 4 4 4 4 4 4 4 4 3 4 5 6 6 7 6 6 6 6 6 6 7 8 8 9 10 10 11 10 10 10 10 9 10 10 9 9 11 10 6 6
4 3 4 4 4 4 4 5 4 5 4 4 3 3 4 3 4 4 5 6 6 7 6 6 6 6 7 7 7 9 9 9 10 10 11 10 11 11 11 12 8 7 8 7 7 7 6

GFSGBSN_925_temp_150.txt.gz
Temp
14 13 13 13 13 13 13 13 13 13 13 12 13 13 13 12 12 13 12 13 13 12 13 13 13 14 16 20 22 18 19 19 19 20 21 23 23 23 24 23 23 24 24 24 24 24 24
13 12 12 13 13 12 12 12 12 12 12 12 12 12 13 12 12 12 12 12 12 12 13 13 13 13 16 19 18 18 18 19 20 21 21 22 22 22 22 22 23 22 23 24 24 25 24
12 11 12 12 12 12 12 11 11 11 11 11 12 12 12 12 12 12 12 11 13 12 13 12 12 12 15 19 17 17 18 19 19 20 21 20 21 22 22 22 21 22 23 25 25 24 24
10 10 10 11 10 10 10 10 10 10 10 10 11 11 11 12 12 11 10 11 12 12 12 12 12 12 17 17 17 17 18 19 19 19 20 19 20 21 22 21 22 23 23 25 24 23 23
10 9 9 9 9 9 9 9 9 9 9 9 9 9 10 10 10 10 10 10 11 11 12 11 12 14 18 17 18 18 18 20 20 19 19 19 20 21 21 23 24 23 25 24 24 24 23
9 9 9 9 9 8 8 8 8 8 8 8 8 8 9 9 9 9 9 10 11 12 11 11 12 14 18 19 18 18 18 18 20 20 20 20 21 22 22 23 24 24 23 24 23 24 23
10 9 9 8 8 8 8 8 8 8 8 8 8 8 8 9 9 9 10 12 15 15 13 17 18 17 18 17 16 19 18 19 20 20 20 20 21 23 24 22 21 22 22 22 24 24 21
10 10 9 9 8 8 7 7 7 7 8 8 8 8 8 8 9 9 10 14 13 12 15 16 15 15 14 15 17 19 18 19 19 20 19 20 21 22 20 20 20 20 21 21 22 22 21
9 9 9 9 8 8 7 7 7 7 7 8 8 8 7 8 8 9 11 12 10 10 14 16 15 15 16 15 17 18 19 19 19 19 19 20 21 19 19 20 19 21 20 20 20 21 22
9 9 9 8 8 8 7 7 7 7 7 7 7 7 7 8 8 9 11 9 9 10 15 17 15 16 15 16 16 17 18 19 18 18 19 19 20 18 19 19 20 19 21 19 19 19 20
8 8 8 8 7 7 7 7 7 6 7 7 7 7 7 7 9 10 9 9 10 10 16 16 15 15 16 16 17 17 16 18 18 18 18 19 18 18 18 19 19 19 18 18 18 19 19
8 8 8 8 7 7 7 7 6 6 7 7 7 7 7 7 7 8 8 9 10 14 15 16 16 15 16 16 17 17 17 18 18 17 18 18 19 18 19 19 19 19 18 19 19 19 18
8 8 8 8 7 7 7 7 7 6 6 7 7 7 7 7 9 8 8 10 13 14 15 15 16 16 16 17 17 17 17 17 18 17 18 18 19 20 19 18 19 19 18 17 17 18 18
8 8 8 8 7 7 7 7 6 6 7 6 7 7 7 7 8 8 9 12 12 15 14 15 16 16 17 17 17 17 17 18 18 18 18 17 18 19 18 18 19 18 19 17 16 18 18
8 8 8 7 7 7 7 6 6 6 7 6 6 7 7 7 8 8 11 11 15 15 14 15 16 16 16 16 16 16 17 18 18 18 17 17 17 18 18 19 19 18 17 19 17 17 16
7 8 8 8 7 7 7 6 6 6 6 6 6 7 8 7 8 9 11 12 13 12 13 14 15 15 15 16 15 16 16 17 17 17 18 17 15 18 18 19 19 18 19 16 16 14 16
7 7 8 7 7 7 7 6 6 6 6 6 7 8 7 7 8 10 9 12 11 12 12 13 14 14 14 14 14 15 16 17 17 16 17 17 16 16 17 17 18 17 17 17 16 15 15
7 7 7 7 7 7 7 6 6 6 6 6 7 7 5 6 8 9 10 10 10 11 12 12 12 13 13 13 13 14 14 16 16 16 15 17 15 14 16 18 19 18 18 17 15 15 15
6 6 7 7 7 7 7 6 6 6 6 6 7 7 5 6 8 8 9 10 11 10 12 11 11 12 12 11 11 11 13 15 15 15 15 16 14 14 16 17 17 16 17 17 17 15 14
6 6 7 7 6 7 6 7 6 6 6 7 7 6 5 5 9 10 9 9 9 10 11 11 11 11 11 9 12 10 12 14 13 14 12 14 14 14 14 15 16 15 17 17 16 12 14
6 6 6 6 7 6 6 7 6 6 6 7 7 7 8 6 6 8 9 9 9 9 10 11 10 10 11 8 10 11 12 13 13 13 13 13 12 13 14 15 15 15 15 15 15 15 14
6 6 6 5 7 6 7 7 6 6 6 6 4 7 8 9 9 8 7 8 9 10 9 10 10 11 11 10 11 11 12 11 11 12 13 14 12 9 9 13 14 12 11 10 13 14 14
6 5 6 5 6 6 6 6 6 6 5 5 6 7 9 8 9 7 8 8 9 10 10 10 11 11 10 11 12 12 12 11 11 11 11 11 11 11 11 14 14 13 11 11 14 15 14
5 5 5 6 5 6 6 6 6 5 5 4 5 7 8 7 8 8 9 9 9 9 9 11 11 10 11 11 11 10 10 11 11 11 11 11 11 12 11 13 11 13 15 15 15 15 16
5 4 5 5 6 6 6 6 6 6 5 5 5 5 6 6 8 9 9 9 10 10 9 9 11 12 12 6 7 8 10 8 10 11 11 11 11 11 11 13 15 16 16 13 13 15 15
4 4 4 5 5 5 6 6 6 6 5 5 5 5 6 7 7 8 8 9 8 9 9 10 11 11 10 7 7 9 11 12 12 12 13 12 12 11 12 11 13 15 14 13 14 14 13
4 4 4 4 5 5 6 6 6 6 5 5 5 5 6 6 8 7 7 7 8 9 8 9 9 10 9 6 8 10 11 13 12 13 10 10 10 10 11 12 14 16 14 13 13 14 12
4 4 4 4 4 5 5 5 5 5 5 4 4 4 5 4 6 7 8 8 9 9 8 10 7 7 6 7 9 11 11 12 13 14 13 12 11 12 12 11 11 14 12 13 13 12 12
4 3 4 4 4 5 5 5 5 5 5 4 4 4 4 3 4 6 6 8 8 9 9 6 7 7 6 8 9 11 11 13 13 13 15 13 14 13 14 14 12 13 12 12 12 13 11

GFSGBSN_925_temp_153.txt.gz
Temp
14 14 14 14 14 13 13 14 14 13 12 12 12 13 13 13 12 12 12 12 13 13 14 14 14 14 16 23 25 21 20 21 22 23 25 26 27 27 27 27 27 27 29 28 28 27 28
14 14 13 13 13 13 13 13 13 13 13 12 12 12 12 12 12 12 12 12 12 12 13 13 13 14 18 21 22 21 21 21 23 24 25 25 25 26 26 26 26 27 26 27 28 28 28
13 13 13 12 11 12 12 12 12 12 12 12 12 12 12 12 12 12 12 12 11 12 12 12 13 13 18 21 21 21 21 21 22 23 24 24 24 25 26 26 26 26 25 28 28 28 27
11 11 10 11 12 11 11 10 11 11 11 11 11 12 12 12 12 12 12 11 10 12 12 12 12 14 19 21 20 20 21 22 22 22 22 22 23 24 25 26 26 26 27 27 30 27 27
10 10 10 10 10 10 10 10 9 10 10 10 10 10 10 10 11 11 10 11 11 11 12 12 13 17 20 19 21 21 21 22 23 22 22 21 23 24 25 25 27 28 27 28 28 28 28
10 10 10 10 10 9 10 9 9 9 9 9 9 9 9 9 10 10 9 10 12 12 13 13 15 16 20 23 21 21 21 21 23 23 23 22 24 24 26 26 25 27 27 28 27 29 27
10 10 10 10 9 9 9 8 8 8 8 8 9 8 8 9 9 10 10 12 16 17 16 20 22 21 22 21 20 22 21 22 23 23 23 24 23 25 27 26 25 25 25 25 27 28 26
9 9 9 10 9 9 8 8 8 8 8 8 8 8 8 8 9 10 10 17 17 14 17 21 21 20 20 19 19 22 20 22 22 22 24 23 23 25 25 24 23 23 24 24 26 27 26
9 9 9 10 9 9 8 8 8 7 7 8 8 8 8 8 9 10 14 15 13 14 17 21 19 19 20 19 19 22 22 22 22 22 23 22 24 23 22 22 23 23 23 24 24 24 25
9 9 9 9 9 9 8 8 7 7 7 7 8 8 8 8 9 13 14 13 12 12 16 20 18 19 18 19 19 21 21 22 21 21 22 22 23 21 21 21 22 21 24 23 22 21 22
9 9 9 9 8 8 8 8 7 7 7 7 7 7 7 8 11 13 12 11 11 13 16 20 18 18 19 19 20 19 19 21 20 21 20 21 21 20 20 21 21 20 21 21 21 21 21
8 8 8 8 8 8 8 7 7 7 7 7 7 7 7 8 9 10 9 10 12 15 16 18 18 18 18 18 19 19 19 19 20 20 20 20 22 21 20 21 21 21 20 20 21 21 20
8 8 8 8 8 8 8 7 7 7 7 7 7 7 7 8 11 8 8 12 14 15 18 18 18 18 19 19 19 19 19 19 20 19 20 21 21 22 21 20 21 20 20 19 19 20 21
8 8 8 8 8 8 7 7 7 7 7 7 7 7 7 8 8 8 10 13 13 18 19 17 18 18 18 19 19 19 20 20 21 20 20 20 20 21 22 21 21 22 21 19 18 19 21
7 8 8 8 8 7 7 7 7 7 7 7 7 7 8 9 8 9 13 12 16 18 18 17 17 17 18 19 18 19 19 20 21 21 19 19 19 21 21 21 21 21 20 21 19 20 19
7 7 8 8 8 7 7 7 7 7 7 6 8 8 10 9 8 10 12 13 16 16 16 16 17 18 18 19 17 18 19 20 19 20 20 19 17 20 21 21 21 20 21 18 19 16 17
7 7 7 7 7 7 7 7 7 7 6 7 7 9 9 9 9 13 11 14 16 15 15 16 17 16 17 17 17 17 18 19 19 19 19 19 18 18 19 19 20 20 19 19 19 19 16
6 7 7 7 7 7 7 7 7 6 7 6 8 8 9 9 10 12 12 15 12 15 15 15 15 16 15 16 15 16 16 18 18 19 18 19 17 15 18 20 21 20 19 19 16 17 18
6 6 6 6 7 7 7 7 7 6 6 8 8 9 8 9 10 11 14 14 13 14 15 15 15 15 15 13 12 13 15 17 17 17 17 18 16 15 17 19 20 19 19 20 19 18 15
5 6 6 6 6 7 7 7 6 6 7 7 8 7 6 7 12 13 13 13 12 13 14 15 14 14 13 13 14 10 14 16 16 16 13 14 15 15 15 16 18 16 16 17 17 14 15
5 5 5 6 6 6 7 7 6 6 7 6 9 9 9 6 8 11 14 13 13 12 13 14 13 13 13 10 11 12 14 15 15 15 15 14 13 14 15 16 17 17 17 17 17 18 16
4 4 5 6 5 6 6 6 7 7 7 7 6 9 12 13 10 11 11 12 12 13 13 12 12 14 14 13 13 12 13 13 13 14 14 15 13 13 10 13 15 13 13 13 15 16 16
3 4 5 5 5 6 6 5 6 6 6 7 9 11 12 11 11 10 11 11 11 13 13 13 13 13 13 14 14 13 13 12 12 13 13 13 13 13 12 15 16 14 13 14 16 18 18
3 3 5 5 5 5 5 5 6 6 6 8 9 10 10 9 11 11 11 12 11 12 12 13 13 12 13 14 13 13 12 12 12 12 13 12 13 13 12 14 11 15 18 18 18 18 18
3 4 4 5 5 6 5 5 6 6 6 7 8 9 9 9 11 11 11 12 12 12 11 12 13 14 14 10 10 10 12 12 12 13 14 14 13 12 12 13 15 17 18 18 17 16 18
3 3 4 5 5 5 5 5 6 6 6 6 7 8 8 9 10 12 12 11 11 11 10 11 13 13 12 8 8 9 12 14 14 15 15 14 13 11 13 12 13 17 17 17 17 15 16
3 3 4 4 4 5 5 5 6 6 6 6 6 6 7 7 11 11 10 10 11 11 11 12 10 11 11 7 8 10 12 15 14 14 13 12 11 10 12 12 15 18 17 16 14 14 14
3 4 4 4 5 5 5 5 5 6 6 5 6 6 7 8 10 10 10 10 10 9 8 11 11 11 8 8 9 12 12 14 14 15 13 13 12 12 12 12 12 18 16 14 15 15 15
4 4 4 4 4 5 5 5 5 5 5 5 5 5 5 6 7 6 8 9 10 11 10 10 10 8 7 7 9 11 12 13 13 11 16 12 15 15 15 14 15 16 15 15 15 15 14

GFSGBSN_925_temp_156.txt.gz
Temp
14 14 14 14 14 14 14 14 13 13 13 13 13 13 13 13 13 13 13 12 12 13 13 14 13 14 15 21 24 22 22 22 22 24 26 27 26 27 27 28 29 28 29 30 29 29 28
14 14 14 14 14 13 13 13 13 13 13 13 12 13 13 13 13 13 13 13 13 13 12 12 13 13 17 19 23 24 22 23 24 25 26 26 26 26 26 27 27 28 28 28 29 29 29
14 14 14 14 13 12 13 12 13 12 12 12 12 12 13 13 13 13 13 13 13 12 12 12 12 12 16 19 22 23 23 23 23 24 25 25 25 25 26 26 28 27 26 28 29 29 28
13 13 13 12 12 11 11 12 13 13 12 12 12 12 13 13 13 13 13 13 13 14 13 13 12 12 17 22 22 22 23 23 24 23 24 24 24 24 25 26 26 26 27 26 29 30 29
11 11 10 11 11 11 11 11 11 11 11 11 10 10 11 12 12 12 12 14 14 14 12 13 12 16 19 22 22 23 23 24 24 24 24 23 24 24 26 25 25 27 26 28 29 30 29
11 10 10 10 10 11 10 10 10 10 10 9 9 9 10 10 10 11 11 14 13 11 14 13 15 17 20 23 23 23 23 22 24 25 24 23 24 24 25 25 24 26 27 28 28 29 28
10 10 10 9 10 10 10 9 9 9 9 8 8 9 9 9 10 10 11 15 16 16 15 20 22 21 23 24 22 22 24 23 24 24 22 25 23 23 26 27 27 26 25 25 27 28 28
10 10 9 9 9 9 9 9 8 8 8 8 8 8 8 8 9 10 10 16 18 16 17 21 22 22 23 22 20 23 23 22 23 22 24 23 23 25 26 26 24 24 24 24 25 27 27
9 9 9 9 9 9 9 9 8 8 8 8 8 8 8 8 9 10 12 17 15 15 16 20 23 22 22 22 21 22 24 22 22 22 23 22 25 26 24 23 23 23 23 23 24 25 25
9 9 9 9 9 9 8 8 8 8 7 7 7 7 8 8 8 14 16 15 14 14 16 21 20 21 20 20 20 22 23 22 22 21 22 23 25 24 22 22 23 21 24 23 22 22 20
9 9 9 9 9 9 9 8 8 7 7 7 7 7 8 8 9 14 13 13 13 14 15 22 20 19 21 20 21 20 21 21 20 22 21 21 22 21 21 22 23 21 22 21 21 20 20
8 9 9 9 9 8 8 8 8 7 7 7 7 7 8 8 9 11 11 11 12 14 15 20 20 19 18 19 20 20 20 20 21 20 21 21 23 22 22 22 22 22 21 21 21 20 18
8 8 8 8 8 8 8 8 8 8 7 7 7 7 7 9 12 10 10 12 13 14 20 20 19 20 19 19 19 19 19 19 19 18 19 21 21 22 22 20 21 21 19 17 18 18 19
7 8 8 8 8 8 8 8 7 7 7 7 7 7 8 9 10 9 11 13 12 18 19 19 19 19 19 21 20 20 20 20 21 21 20 19 19 23 23 21 20 21 21 18 17 18 19
7 7 7 8 8 8 8 7 7 7 7 7 7 7 8 8 9 9 12 12 15 18 19 18 18 18 18 20 19 20 20 20 21 22 19 19 20 23 22 22 21 20 20 22 20 20 18
6 7 7 7 7 8 8 7 7 7 7 7 7 8 9 10 9 10 12 13 16 18 17 18 17 18 18 19 18 19 19 21 20 21 21 19 17 21 21 22 22 20 21 18 19 16 16
5 6 7 7 7 7 7 7 7 7 7 7 8 8 11 10 9 11 10 13 16 18 17 17 17 18 18 18 19 18 19 20 20 20 20 19 18 18 20 20 20 20 20 20 19 18 16
5 5 6 7 7 7 7 7 7 7 7 7 8 7 9 10 9 11 11 14 15 17 16 16 16 17 17 18 17 17 17 18 20 19 18 19 17 16 17 20 21 21 20 20 17 17 17
4 5 5 6 7 7 7 7 7 7 7 8 7 8 9 10 9 11 13 14 16 15 16 16 16 17 17 15 13 13 16 18 18 18 17 17 16 15 17 19 19 19 20 20 19 18 16
3 4 5 5 6 6 6 6 7 7 7 8 9 7 8 8 11 13 13 14 14 15 15 16 16 16 15 14 15 12 14 16 17 17 14 15 15 14 14 16 17 16 18 19 18 14 14
3 4 4 5 6 6 6 6 7 6 7 7 8 9 9 7 8 10 13 14 14 14 14 15 15 15 14 12 13 13 14 15 16 16 16 15 13 14 15 15 16 15 15 16 15 16 14
3 3 4 4 5 5 6 6 6 6 7 6 6 9 11 11 10 10 12 12 13 15 15 13 14 15 15 14 12 13 15 14 14 16 15 15 13 13 11 14 14 13 13 13 15 16 16
3 3 3 4 5 5 5 6 6 6 6 7 9 11 11 11 11 11 11 13 14 14 15 15 15 14 14 15 15 15 14 14 14 13 13 14 13 13 12 14 15 14 13 14 16 17 17
3 3 3 3 4 4 5 5 6 6 6 8 10 11 10 9 12 12 12 13 13 13 13 14 14 13 14 15 14 14 13 13 13 13 13 12 12 13 11 13 11 14 17 18 17 18 19
2 2 3 3 3 4 5 5 6 5 5 7 9 10 10 9 12 13 13 13 13 13 12 13 14 15 15 12 10 11 12 12 13 14 14 13 12 11 11 12 14 15 17 17 15 14 15
2 2 3 3 3 4 4 5 5 5 6 6 7 9 9 9 10 13 13 13 12 12 13 13 14 14 13 9 9 9 10 13 15 15 16 14 13 11 12 11 12 16 13 14 18 14 16
2 2 2 3 3 4 5 5 4 4 5 6 7 8 8 9 11 12 11 12 13 12 12 12 13 12 12 8 8 10 11 14 13 14 15 12 12 10 11 11 14 17 13 15 13 14 15
2 2 2 3 3 4 4 5 4 4 5 6 6 7 7 8 11 12 12 11 12 11 10 11 11 11 7 8 8 11 12 14 14 15 15 11 11 11 12 11 11 17 16 14 14 15 15
2 2 2 3 4 4 4 4 4 4 5 6 6 6 6 7 7 6 9 10 11 11 9 9 10 8 8 8 8 10 11 11 12 11 16 12 13 14 15 14 12 13 15 15 16 16 15

GFSGBSN_925_temp_159.txt.gz
Temp
14 14 14 14 14 14 14 14 14 14 13 13 13 14 14 14 14 14 14 14 14 14 14 13 14 14 15 17 19 23 23 23 23 23 24 23 23 22 21 22 23 24 25 25 25 26 27
14 14 14 14 14 14 14 14 13 13 13 14 14 14 14 14 14 14 14 14 14 14 14 13 13 13 15 16 23 23 23 23 23 23 24 24 23 22 21 22 23 24 24 23 24 24 25
15 14 14 14 14 14 14 13 13 13 13 13 13 14 14 14 13 13 14 14 15 14 14 13 12 11 13 15 22 22 22 23 23 23 23 24 24 21 20 21 24 24 22 22 23 24 24
15 14 14 14 14 13 13 12 12 12 12 12 12 12 13 13 13 12 13 14 14 15 14 12 12 11 12 21 21 22 22 22 23 23 23 24 23 21 21 21 22 22 22 20 23 24 24
12 12 12 12 11 11 11 12 12 11 11 10 10 11 11 11 11 11 11 14 15 13 13 13 11 12 14 20 21 23 23 23 23 24 24 24 23 20 21 20 18 21 20 21 23 25 24
11 11 11 11 10 10 11 11 10 10 10 10 9 9 10 10 10 10 11 14 16 13 13 12 13 14 16 20 23 22 22 23 22 22 22 21 20 18 18 18 18 20 21 21 22 23 23
10 10 10 10 10 9 9 10 10 9 9 9 9 9 9 9 9 10 12 14 15 12 12 15 17 17 21 23 23 22 23 23 22 21 19 20 18 17 18 20 22 22 21 20 21 23 22
10 9 9 9 9 9 9 9 9 9 9 9 8 8 8 8 9 9 11 10 15 15 12 16 18 19 20 21 20 21 22 21 20 18 20 19 18 20 23 23 22 22 21 20 21 23 23
9 10 10 9 9 9 9 8 9 9 9 8 8 8 8 8 10 11 11 13 15 14 12 16 19 19 20 21 20 20 21 20 19 18 19 18 20 23 23 22 22 21 20 19 20 20 20
9 9 9 9 9 9 9 9 9 8 8 8 7 7 8 9 10 11 12 13 14 13 9 16 19 20 20 19 18 21 22 20 20 19 19 19 21 22 20 20 21 19 21 20 20 18 16
9 8 9 9 9 9 9 9 8 8 8 7 7 7 7 8 8 10 11 13 13 13 10 20 19 19 20 18 20 20 20 20 18 18 20 18 19 20 20 20 21 20 20 20 19 18 16
8 9 8 9 9 9 9 8 8 8 8 7 7 7 7 8 9 11 11 12 12 10 11 19 18 17 18 18 19 19 19 19 19 18 19 18 20 20 20 21 21 21 20 19 18 17 14
7 8 8 8 8 8 8 8 8 8 8 7 7 7 7 8 9 10 11 11 9 9 18 18 18 18 18 18 18 18 18 17 16 16 16 19 19 20 21 19 20 19 18 13 13 13 14
6 7 7 8 8 8 8 8 8 8 8 7 7 7 7 8 9 10 10 10 9 14 16 20 19 19 17 19 18 18 18 17 17 18 17 16 15 21 21 20 19 18 18 14 15 15 16
6 6 7 7 7 8 8 7 8 8 7 7 7 7 7 8 9 9 8 8 10 15 18 19 18 17 17 19 18 18 18 17 19 19 17 17 18 20 21 21 20 19 17 18 16 16 14
5 5 6 7 7 7 7 7 8 7 7 7 6 7 8 9 9 9 8 10 13 17 17 17 16 17 16 17 16 17 17 19 19 19 18 18 14 19 20 20 20 19 19 15 13 14 14
4 4 5 6 6 7 7 7 7 7 7 7 6 6 10 9 9 7 7 9 14 16 17 16 16 16 17 17 17 16 17 19 18 18 19 18 16 15 17 18 18 17 17 17 17 13 12
4 4 4 5 5 6 7 7 7 7 7 6 7 5 10 9 6 6 8 12 14 15 15 15 15 15 16 17 15 16 16 17 17 16 16 16 14 10 15 17 18 17 16 17 12 14 13
3 3 4 4 5 6 6 7 7 7 7 6 5 6 9 9 7 6 9 12 13 13 15 14 15 15 16 14 11 12 13 15 15 15 13 14 11 11 12 15 17 16 17 16 16 13 13
3 3 3 4 5 5 6 6 7 7 6 7 6 5 5 7 7 9 9 11 12 15 15 15 15 15 14 13 12 10 13 15 15 15 14 14 13 12 8 12 14 13 15 15 14 9 11
3 3 3 3 4 5 5 6 6 6 6 6 6 6 7 6 6 7 9 10 12 13 14 14 14 14 13 9 11 11 12 13 14 15 14 13 11 12 12 13 13 13 13 13 13 12 11
3 3 3 3 4 4 5 5 6 6 6 4 5 6 7 8 8 8 8 9 10 13 13 12 12 14 13 11 10 10 12 11 11 14 14 13 10 11 9 12 13 11 11 10 12 13 13
3 3 3 3 3 4 4 5 5 6 5 3 5 9 7 7 8 7 8 9 12 13 14 14 13 13 12 13 12 12 12 12 12 12 11 11 11 10 10 12 12 11 10 11 13 14 14
2 2 3 3 3 3 4 4 5 5 5 4 7 9 7 5 8 9 11 10 11 12 11 14 13 13 13 12 12 12 12 12 11 11 12 10 10 10 9 10 9 10 14 15 14 15 15
2 2 2 2 3 3 3 4 5 5 5 4 7 8 7 5 9 10 10 11 11 12 12 12 13 13 10 9 8 9 8 10 11 12 11 11 10 9 9 9 11 12 14 14 14 12 13
2 2 2 2 3 3 3 3 4 4 5 3 5 8 8 6 7 11 11 11 9 9 10 11 12 13 11 7 6 8 9 11 12 13 13 12 10 9 8 9 9 13 13 13 14 9 13
2 2 2 2 2 3 3 3 4 5 5 4 4 6 8 6 9 11 9 9 11 10 8 11 11 11 10 4 7 6 8 11 10 11 12 10 10 9 9 9 9 14 13 14 10 11 14
1 2 2 2 2 3 3 3 4 5 4 4 4 6 7 6 8 9 11 10 10 9 6 8 8 8 7 6 7 7 8 10 10 12 12 11 10 9 9 9 10 12 12 12 10 14 14
1 1 1 2 2 3 3 3 4 4 5 3 4 5 6 5 4 6 7 8 9 9 7 7 7 8 7 6 7 7 8 9 10 8 13 10 10 10 10 9 11 11 10 11 12 12 14